^^
Station Historical Data
 
Daily Summary for April 22, 2019 Units:  English    Metric   Both
« Previous Day
Next Day »
Daily Weekly Monthly Yearly Custom
  Current: High: Low: Average:
Temperature: 57.7 °F 59.2 °F 40.5 °F 45.6 °F
Dew Point: 46.4 °F 47.1 °F 34.7 °F 41 °F
Humidity: 66% 98% 63% 85%
Wind Speed: 0.0mph 4.9mph 0.0mph 0.5mph
Wind Gust: 0.0mph 4.9mph - -
WindCalm - - ESE
Pressure: 29.95 in 30.04 in 29.95 in -
Precipitation: 0.03 in      
Historical Graphs
 
 
Tabular Data for April 22, 2019
Time Temperature Dew Point Pressure Wind Wind Speed Wind Gust Humidity Rainfall Rate (Hourly) solar Conditions
00:04 42.1 °F 34.7 °F 29.98 in NE 0.9 mph 2.9 mph 75% 0.00 in meteobridge W/m2
00:09 42.1 °F 34.7 °F 29.98 in Calm     75% 0.00 in meteobridge W/m2
00:14 42.1 °F 34.7 °F 29.98 in Calm   0.9 mph 75% 0.00 in meteobridge W/m2
00:19 41.9 °F 34.9 °F 29.98 in NNE 2.0 mph 2.0 mph 76% 0.00 in meteobridge W/m2
00:24 41.9 °F 34.9 °F 29.99 in Calm     76% 0.00 in meteobridge W/m2
00:29 41.9 °F 35.6 °F 29.98 in Calm     78% 0.00 in meteobridge W/m2
00:34 41.9 °F 35.6 °F 29.99 in Calm   0.9 mph 78% 0.00 in meteobridge W/m2
00:39 41.9 °F 35.6 °F 29.99 in Calm     78% 0.00 in meteobridge W/m2
00:44 41.9 °F 35.8 °F 29.99 in Calm   0.9 mph 79% 0.00 in meteobridge W/m2
00:49 41.7 °F 35.8 °F 29.99 in Calm   0.9 mph 79% 0.00 in meteobridge W/m2
00:54 41.7 °F 35.8 °F 29.99 in ESE 0.9 mph 0.9 mph 79% 0.00 in meteobridge W/m2
00:59 41.7 °F 36.0 °F 29.98 in Calm   2.0 mph 80% 0.00 in meteobridge W/m2
01:04 41.7 °F 36.0 °F 29.96 in ENE 0.9 mph 2.0 mph 80% 0.00 in meteobridge W/m2
01:09 41.7 °F 36.3 °F 29.96 in Calm   2.0 mph 81% 0.00 in meteobridge W/m2
01:14 41.7 °F 36.3 °F 29.96 in Calm     81% 0.00 in meteobridge W/m2
01:19 41.7 °F 36.3 °F 29.98 in Calm     81% 0.00 in meteobridge W/m2
01:24 41.7 °F 36.3 °F 29.99 in Calm     81% 0.00 in meteobridge W/m2
01:29 41.7 °F 36.3 °F 29.98 in Calm     81% 0.00 in meteobridge W/m2
01:34 41.7 °F 36.3 °F 29.99 in Calm     81% 0.00 in meteobridge W/m2
01:39 41.7 °F 36.3 °F 29.99 in Calm     81% 0.00 in meteobridge W/m2
01:44 41.9 °F 36.5 °F 29.98 in Calm     81% 0.00 in meteobridge W/m2
01:49 41.9 °F 36.5 °F 29.98 in Calm     81% 0.00 in meteobridge W/m2
01:54 41.9 °F 36.5 °F 29.98 in Calm     81% 0.00 in meteobridge W/m2
01:59 42.1 °F 36.7 °F 29.98 in ENE 0.9 mph 0.9 mph 81% 0.00 in meteobridge W/m2
02:04 42.1 °F 36.7 °F 29.99 in Calm     81% 0.00 in meteobridge W/m2
02:09 42.1 °F 36.7 °F 29.99 in Calm   2.0 mph 81% 0.00 in meteobridge W/m2
02:14 42.3 °F 36.9 °F 29.98 in Calm     81% 0.00 in meteobridge W/m2
02:19 42.3 °F 36.9 °F 29.98 in ESE 0.9 mph 2.0 mph 81% 0.00 in meteobridge W/m2
02:24 42.3 °F 36.9 °F 29.98 in Calm     81% 0.00 in meteobridge W/m2
02:29 42.3 °F 36.9 °F 29.98 in Calm     81% 0.00 in meteobridge W/m2
02:34 42.3 °F 38.1 °F 29.99 in Calm   0.9 mph 85% 0.00 in meteobridge W/m2
02:39 42.3 °F 38.3 °F 29.99 in Calm     86% 0.00 in meteobridge W/m2
02:44 42.1 °F 38.1 °F 29.99 in Calm     86% 0.00 in meteobridge W/m2
02:49 41.9 °F 38.7 °F 29.99 in Calm     88% 0.00 in meteobridge W/m2
02:54 41.7 °F 38.5 °F 29.99 in Calm     88% 0.00 in meteobridge W/m2
02:59 41.7 °F 38.5 °F 29.99 in Calm     88% 0.00 in meteobridge W/m2
03:04 41.5 °F 38.8 °F 29.99 in Calm     90% 0.00 in meteobridge W/m2
03:09 41.5 °F 38.8 °F 29.99 in Calm     90% 0.00 in meteobridge W/m2
03:14 41.5 °F 39.2 °F 29.99 in Calm     91% 0.00 in meteobridge W/m2
03:19 41.5 °F 39.2 °F 29.99 in Calm     91% 0.00 in meteobridge W/m2
03:24 41.4 °F 39.0 °F 29.99 in Calm   0.9 mph 91% 0.00 in meteobridge W/m2
03:29 41.4 °F 39.0 °F 30.00 in Calm     91% 0.00 in meteobridge W/m2
03:34 41.4 °F 39.0 °F 29.99 in Calm     91% 0.00 in meteobridge W/m2
03:39 41.4 °F 39.0 °F 29.99 in Calm     91% 0.00 in meteobridge W/m2
03:44 41.4 °F 39.0 °F 29.99 in Calm     91% 0.00 in meteobridge W/m2
03:49 41.4 °F 39.0 °F 29.99 in Calm     91% 0.00 in meteobridge W/m2
03:54 41.2 °F 39.4 °F 29.99 in Calm   0.9 mph 93% 0.00 in meteobridge W/m2
03:59 41.2 °F 39.4 °F 29.99 in Calm     93% 0.00 in meteobridge W/m2
04:04 41.2 °F 39.4 °F 29.99 in Calm     93% 0.00 in meteobridge W/m2
04:09 41.2 °F 39.4 °F 29.99 in Calm     93% 0.00 in meteobridge W/m2
04:14 40.8 °F 39.6 °F 30.00 in Calm     95% 0.00 in meteobridge W/m2
04:19 40.8 °F 39.6 °F 29.99 in Calm     95% 0.00 in meteobridge W/m2
04:24 40.8 °F 39.6 °F 29.99 in Calm     95% 0.00 in meteobridge W/m2
04:29 40.8 °F 39.7 °F 29.99 in Calm     96% 0.00 in meteobridge W/m2
04:34 40.8 °F 39.7 °F 30.00 in Calm     96% 0.00 in meteobridge W/m2
04:39 40.8 °F 39.7 °F 29.99 in Calm     96% 0.00 in meteobridge W/m2
04:44 40.8 °F 39.7 °F 29.99 in Calm     96% 0.00 in meteobridge W/m2
04:49 40.8 °F 39.7 °F 30.00 in Calm     96% 0.00 in meteobridge W/m2
04:54 40.6 °F 39.6 °F 29.99 in Calm   0.9 mph 96% 0.00 in meteobridge W/m2
04:59 40.8 °F 39.7 °F 30.00 in SSW 2.0 mph 2.0 mph 96% 0.00 in meteobridge W/m2
05:04 40.8 °F 39.7 °F 29.99 in Calm     96% 0.00 in meteobridge W/m2
05:09 40.8 °F 39.7 °F 29.99 in Calm     96% 0.00 in meteobridge W/m2
05:14 40.8 °F 39.7 °F 29.99 in Calm     96% 0.00 in meteobridge W/m2
05:19 40.8 °F 39.7 °F 29.99 in Calm     96% 0.00 in meteobridge W/m2
05:24 40.8 °F 39.7 °F 30.01 in Calm     96% 0.01 in meteobridge W/m2
05:29 40.8 °F 40.3 °F 30.00 in Calm   0.9 mph 98% 0.01 in meteobridge W/m2
05:34 40.6 °F 40.1 °F 30.00 in SE 0.9 mph 2.0 mph 98% 0.01 in meteobridge W/m2
05:39 40.6 °F 40.1 °F 30.00 in Calm   2.0 mph 98% 0.01 in meteobridge W/m2
05:44 40.6 °F 40.1 °F 29.99 in Calm   0.9 mph 98% 0.01 in meteobridge W/m2
05:49 40.6 °F 40.1 °F 30.00 in NNE 2.0 mph 2.0 mph 98% 0.01 in meteobridge W/m2
05:54 40.6 °F 40.1 °F 30.00 in Calm   2.0 mph 98% 0.02 in meteobridge W/m2
05:59 40.6 °F 40.1 °F 30.01 in Calm     98% 0.02 in meteobridge W/m2
06:04 40.6 °F 40.1 °F 30.01 in Calm     98% 0.02 in meteobridge W/m2
06:09 40.6 °F 40.1 °F 30.01 in Calm   0.9 mph 98% 0.02 in meteobridge W/m2
06:14 40.5 °F 39.9 °F 30.01 in Calm     98% 0.02 in meteobridge W/m2
06:19 40.5 °F 39.9 °F 30.01 in Calm     98% 0.01 in meteobridge W/m2
06:24 40.5 °F 39.9 °F 30.00 in Calm     98% 0.01 in meteobridge W/m2
06:29 40.5 °F 39.9 °F 30.00 in Calm     98% 0.01 in meteobridge W/m2
06:34 40.5 °F 39.9 °F 30.01 in ESE 0.9 mph 0.9 mph 98% 0.01 in meteobridge W/m2
06:39 40.5 °F 39.9 °F 30.00 in Calm     98% 0.01 in meteobridge W/m2
06:44 40.5 °F 39.9 °F 30.00 in Calm     98% 0.01 in meteobridge W/m2
06:49 40.5 °F 39.9 °F 30.00 in Calm     98% 0.01 in meteobridge W/m2
06:54 40.6 °F 40.1 °F 30.00 in Calm     98% 0.00 in meteobridge W/m2
06:59 40.8 °F 40.3 °F 30.01 in Calm     98% 0.00 in meteobridge W/m2
07:04 40.8 °F 40.3 °F 30.00 in Calm     98% 0.00 in meteobridge W/m2
07:09 41.2 °F 40.6 °F 30.00 in Calm     98% 0.00 in meteobridge W/m2
07:14 41.4 °F 40.8 °F 30.01 in Calm     98% 0.00 in meteobridge W/m2
07:19 41.7 °F 41.2 °F 30.01 in Calm     98% 0.00 in meteobridge W/m2
07:24 41.9 °F 41.4 °F 30.01 in Calm     98% 0.00 in meteobridge W/m2
07:29 41.9 °F 41.4 °F 30.00 in Calm     98% 0.00 in meteobridge W/m2
07:34 42.1 °F 41.5 °F 30.01 in Calm     98% 0.00 in meteobridge W/m2
07:39 42.4 °F 41.9 °F 30.00 in Calm     98% 0.00 in meteobridge W/m2
07:44 42.4 °F 41.9 °F 30.00 in Calm   0.9 mph 98% 0.00 in meteobridge W/m2
07:49 43.3 °F 42.8 °F 30.00 in Calm     98% 0.00 in meteobridge W/m2
07:54 44.2 °F 42.3 °F 30.00 in Calm     93% 0.00 in meteobridge W/m2
07:59 45.0 °F 42.4 °F 30.00 in NE 0.9 mph 0.9 mph 91% 0.00 in meteobridge W/m2
08:04 45.9 °F 42.4 °F 30.00 in Calm   2.0 mph 88% 0.00 in meteobridge W/m2
08:09 45.7 °F 42.3 °F 30.00 in Calm   2.0 mph 88% 0.00 in meteobridge W/m2
08:14 45.0 °F 42.3 °F 30.01 in Calm   2.0 mph 90% 0.00 in meteobridge W/m2
08:19 45.7 °F 42.3 °F 30.01 in NNE 2.0 mph 2.0 mph 88% 0.00 in meteobridge W/m2
08:24 47.3 °F 43.3 °F 30.01 in Calm     86% 0.00 in meteobridge W/m2
08:29 47.1 °F 43.2 °F 30.00 in East 0.9 mph 2.0 mph 86% 0.00 in meteobridge W/m2
08:34 46.8 °F 42.4 °F 30.00 in Calm     85% 0.00 in meteobridge W/m2
08:39 45.9 °F 41.9 °F 30.00 in Calm     86% 0.00 in meteobridge W/m2
08:44 46.4 °F 42.4 °F 30.00 in ENE 0.9 mph 2.0 mph 86% 0.00 in meteobridge W/m2
08:49 46.6 °F 42.6 °F 30.00 in Calm   2.0 mph 86% 0.00 in meteobridge W/m2
08:54 47.3 °F 43.3 °F 30.01 in NE 0.9 mph 0.9 mph 86% 0.00 in meteobridge W/m2
08:59 47.5 °F 43.5 °F 30.01 in Calm   0.9 mph 86% 0.00 in meteobridge W/m2
09:04 47.3 °F 43.3 °F 30.01 in Calm   0.9 mph 86% 0.00 in meteobridge W/m2
09:09 47.7 °F 42.8 °F 30.01 in Calm     83% 0.00 in meteobridge W/m2
09:14 48.6 °F 43.7 °F 30.02 in Calm     83% 0.00 in meteobridge W/m2
09:19 48.4 °F 42.8 °F 30.02 in WSW 2.0 mph 2.0 mph 81% 0.00 in meteobridge W/m2
09:24 48.6 °F 43.0 °F 30.04 in Calm     81% 0.00 in meteobridge W/m2
09:29 48.6 °F 43.7 °F 30.04 in West 2.0 mph 2.0 mph 83% 0.00 in meteobridge W/m2
09:34 48.6 °F 43.7 °F 30.02 in Calm     83% 0.00 in meteobridge W/m2
09:39 48.6 °F 44.6 °F 30.02 in Calm     86% 0.00 in meteobridge W/m2
09:44 48.6 °F 45.1 °F 29.99 in ENE 0.9 mph 0.9 mph 88% 0.00 in meteobridge W/m2
09:49 48.2 °F 44.8 °F 29.97 in East 0.9 mph 0.9 mph 88% 0.01 in meteobridge W/m2
09:54 46.8 °F 44.2 °F 29.97 in NNW 2.0 mph 2.0 mph 91% 0.01 in meteobridge W/m2
09:59 47.3 °F 44.8 °F 29.97 in NE 0.9 mph 0.9 mph 91% 0.01 in meteobridge W/m2
10:04 47.7 °F 45.0 °F 29.97 in Calm   0.9 mph 90% 0.01 in meteobridge W/m2
10:09 49.5 °F 45.5 °F 29.97 in North 0.9 mph 2.9 mph 86% 0.01 in meteobridge W/m2
10:14 51.4 °F 45.9 °F 29.97 in NNE 2.9 mph 4.0 mph 81% 0.01 in meteobridge W/m2
10:19 51.4 °F 45.5 °F 29.96 in North 0.9 mph 2.9 mph 80% 0.01 in meteobridge W/m2
10:24 52.3 °F 46.0 °F 29.96 in Calm   2.0 mph 79% 0.01 in meteobridge W/m2
10:29 53.4 °F 45.7 °F 29.97 in SE 0.9 mph 2.9 mph 75% 0.01 in meteobridge W/m2
10:34 53.4 °F 45.7 °F 29.96 in NE 2.0 mph 2.9 mph 75% 0.01 in meteobridge W/m2
10:39 54.0 °F 45.9 °F 29.96 in WNW 2.9 mph 4.0 mph 74% 0.01 in meteobridge W/m2
10:44 54.3 °F 45.1 °F 29.97 in NW 4.9 mph 4.9 mph 71% 0.01 in meteobridge W/m2
10:49 54.3 °F 44.8 °F 29.97 in NE 2.0 mph 2.9 mph 70% 0.00 in meteobridge W/m2
10:54 55.9 °F 45.5 °F 29.97 in Calm   2.0 mph 68% 0.00 in meteobridge W/m2
10:59 55.9 °F 45.9 °F 29.98 in Calm     69% 0.00 in meteobridge W/m2
11:04 56.3 °F 45.9 °F 29.98 in NE 2.0 mph 2.9 mph 68% 0.00 in meteobridge W/m2
11:09 55.6 °F 45.1 °F 29.98 in SSW 2.9 mph 2.9 mph 68% 0.00 in meteobridge W/m2
11:14 55.9 °F 44.8 °F 29.99 in East 2.9 mph 4.0 mph 66% 0.00 in meteobridge W/m2
11:19 54.9 °F 45.3 °F 29.99 in Calm     70% 0.00 in meteobridge W/m2
11:24 55.2 °F 45.7 °F 29.99 in Calm     70% 0.00 in meteobridge W/m2
11:29 57.2 °F 45.5 °F 29.98 in SE 2.9 mph 4.0 mph 65% 0.00 in meteobridge W/m2
11:34 56.7 °F 45.5 °F 29.97 in East 2.0 mph 2.9 mph 66% 0.00 in meteobridge W/m2
11:39 55.6 °F 45.5 °F 29.97 in NE 0.9 mph 2.0 mph 69% 0.00 in meteobridge W/m2
11:44 55.9 °F 45.9 °F 29.96 in NNE 2.0 mph 2.9 mph 69% 0.00 in meteobridge W/m2
11:49 56.7 °F 45.5 °F 29.96 in Calm   0.9 mph 66% 0.00 in meteobridge W/m2
11:54 56.3 °F 45.9 °F 29.95 in WNW 0.9 mph 4.9 mph 68% 0.00 in meteobridge W/m2
11:59 58.5 °F 46.8 °F 29.95 in South 2.0 mph 2.0 mph 65% 0.00 in meteobridge W/m2
12:04 59.0 °F 46.4 °F 29.95 in NNE 0.9 mph 4.0 mph 63% 0.00 in meteobridge W/m2
12:09 59.2 °F 46.6 °F 29.95 in ESE 4.9 mph 4.9 mph 63% 0.00 in meteobridge W/m2
12:14 58.8 °F 46.2 °F 29.95 in WSW 2.0 mph 2.0 mph 63% 0.00 in meteobridge W/m2
12:19 57.6 °F 45.9 °F 29.96 in ESE 0.9 mph 2.0 mph 65% 0.00 in meteobridge W/m2
12:24 59.0 °F 46.4 °F 29.95 in East 0.9 mph 2.0 mph 63% 0.00 in meteobridge W/m2
12:29 57.7 °F 46.0 °F 29.96 in ESE 2.9 mph 4.9 mph 65% 0.00 in meteobridge W/m2
12:34 57.7 °F 46.0 °F 29.96 in ESE 0.9 mph 2.0 mph 65% 0.00 in meteobridge W/m2
12:39 57.6 °F 45.9 °F 29.95 in WNW 2.0 mph 4.9 mph 65% 0.00 in meteobridge W/m2
12:44 57.6 °F 47.1 °F 29.95 in NNE 2.0 mph 2.0 mph 68% 0.00 in meteobridge W/m2
12:49 57.7 °F 46.0 °F 29.95 in Calm     65% 0.00 in meteobridge W/m2
12:54 57.6 °F 45.9 °F 29.96 in ESE 0.9 mph 2.9 mph 65% 0.00 in meteobridge W/m2
12:59 57.7 °F 46.4 °F 29.95 in Calm     66% 0.00 in meteobridge W/m2
Juneau County Weather
Compliments of Weather Underground - 4.75 mb